• In Kazakhstan
  • List of Countries
  • For 7 days
  • Water Temperature
  • Satellite Maps
  • Weather Map
  • News
  • Weather Widgets
  • user-avatar
    Login

    Hourly Weather Bamor Kalan

    Today, 20 September, Wednesday

    Time Temperature Precipitation Wind Pressure Humidity
    00:00 +30°C° 0.4 mm 1 mps 723 mmHg 72%
    01:00 +30°C° 0.4 mm 1 mps 723 mmHg 74%
    02:00 +29°C° 0.4 mm 1 mps 723 mmHg 75%
    03:00 +29°C° 1 mm 1 mps 723 mmHg 78%
    04:00 +29°C° 1 mm 1 mps 723 mmHg 80%
    05:00 +28°C° 1 mm 1 mps 723 mmHg 82%
    06:00 +29°C° 0.6 mm 1 mps 723 mmHg 82%
    07:00 +29°C° 0.6 mm 2 mps 724 mmHg 81%
    08:00 +29°C° 0.6 mm 2 mps 724 mmHg 81%
    09:00 +30°C° 0.2 mm 2 mps 724 mmHg 79%
    10:00 +30°C° 0.2 mm 2 mps 724 mmHg 77%
    11:00 +31°C° 0.2 mm 3 mps 724 mmHg 75%
    12:00 +30°C° 0.1 mm 3 mps 723 mmHg 76%
    13:00 +30°C° 0.1 mm 3 mps 723 mmHg 77%
    14:00 +30°C° 0.1 mm 3 mps 722 mmHg 78%
    15:00 +29°C° 0 mm 2 mps 722 mmHg 79%
    16:00 +29°C° 0 mm 2 mps 722 mmHg 81%
    17:00 +29°C° 0 mm 2 mps 721 mmHg 83%
    18:00 +28°C° 0.2 mm 2 mps 722 mmHg 83%
    19:00 +28°C° 0.2 mm 2 mps 723 mmHg 84%
    20:00 +28°C° 0.2 mm 2 mps 723 mmHg 84%
    21:00 +28°C° 1.4 mm 2 mps 723 mmHg 86%
    22:00 +27°C° 1.4 mm 2 mps 723 mmHg 88%
    23:00 +27°C° 1.4 mm 2 mps 723 mmHg 90%

    Tomorrow, 21 September, Thursday

    Time Temperature Precipitation Wind Pressure Humidity
    00:00 +27°C° 0.5 mm 2 mps 723 mmHg 90%
    01:00 +27°C° 0.5 mm 2 mps 722 mmHg 91%
    02:00 +27°C° 0.5 mm 3 mps 722 mmHg 92%
    03:00 +27°C° 0 mm 3 mps 722 mmHg 92%
    04:00 +27°C° 0 mm 2 mps 722 mmHg 92%
    05:00 +27°C° 0 mm 2 mps 722 mmHg 93%
    06:00 +27°C° 0.1 mm 3 mps 722 mmHg 91%
    07:00 +28°C° 0.1 mm 3 mps 723 mmHg 89%
    08:00 +28°C° 0.1 mm 4 mps 723 mmHg 87%
    09:00 +29°C° 0.5 mm 4 mps 723 mmHg 85%
    10:00 +29°C° 0.5 mm 4 mps 723 mmHg 83%
    11:00 +30°C° 0.5 mm 4 mps 723 mmHg 80%
    12:00 +29°C° 1.2 mm 4 mps 722 mmHg 83%
    13:00 +29°C° 1.2 mm 5 mps 721 mmHg 85%
    14:00 +28°C° 1.2 mm 5 mps 721 mmHg 88%
    15:00 +28°C° 1.1 mm 5 mps 721 mmHg 89%
    16:00 +27°C° 1.1 mm 5 mps 721 mmHg 91%
    17:00 +27°C° 1.1 mm 5 mps 721 mmHg 93%
    18:00 +27°C° 0.4 mm 5 mps 721 mmHg 93%
    19:00 +27°C° 0.4 mm 4 mps 722 mmHg 94%
    20:00 +26°C° 0.4 mm 4 mps 722 mmHg 94%
    21:00 +26°C° 0.7 mm 4 mps 722 mmHg 95%
    22:00 +26°C° 0.7 mm 4 mps 722 mmHg 95%
    23:00 +26°C° 0.7 mm 4 mps 722 mmHg 95%

    Day after tomorrow, 22 September, Friday

    Time Temperature Precipitation Wind Pressure Humidity
    00:00 +26°C° 0.5 mm 4 mps 722 mmHg 95%
    01:00 +26°C° 0.5 mm 4 mps 721 mmHg 95%
    02:00 +26°C° 0.5 mm 4 mps 721 mmHg 96%
    03:00 +26°C° 0.7 mm 3 mps 721 mmHg 96%
    04:00 +26°C° 0.7 mm 3 mps 721 mmHg 96%
    05:00 +26°C° 0.7 mm 3 mps 721 mmHg 96%
    06:00 +26°C° 0.7 mm 3 mps 722 mmHg 94%
    07:00 +27°C° 0.7 mm 3 mps 722 mmHg 92%
    08:00 +27°C° 0.7 mm 4 mps 723 mmHg 91%
    09:00 +28°C° 0.5 mm 4 mps 723 mmHg 87%
    10:00 +29°C° 0.5 mm 4 mps 723 mmHg 84%
    11:00 +30°C° 0.5 mm 5 mps 724 mmHg 80%
    12:00 +30°C° 1.2 mm 5 mps 723 mmHg 80%
    13:00 +30°C° 1.2 mm 6 mps 723 mmHg 80%
    14:00 +30°C° 1.2 mm 6 mps 722 mmHg 80%
    15:00 +29°C° 1.1 mm 6 mps 722 mmHg 82%
    16:00 +29°C° 1.1 mm 5 mps 722 mmHg 84%
    17:00 +28°C° 1.1 mm 5 mps 722 mmHg 86%
    18:00 +28°C° 0.5 mm 4 mps 723 mmHg 88%
    19:00 +27°C° 0.5 mm 4 mps 723 mmHg 90%
    20:00 +26°C° 0.5 mm 3 mps 724 mmHg 91%
    21:00 +26°C° 0 mm 3 mps 724 mmHg 92%
    22:00 +26°C° 0 mm 3 mps 724 mmHg 92%
    23:00 +26°C° 0 mm 3 mps 724 mmHg 92%

    23 September, Saturday

    Time Temperature Precipitation Wind Pressure Humidity
    00:00 +26°C° 0 mm 3 mps 724 mmHg 92%
    01:00 +26°C° 0 mm 3 mps 724 mmHg 91%
    02:00 +26°C° 0 mm 3 mps 723 mmHg 91%
    03:00 +26°C° 0 mm 3 mps 724 mmHg 91%
    04:00 +26°C° 0 mm 3 mps 724 mmHg 90%
    05:00 +25°C° 0 mm 3 mps 724 mmHg 90%
    06:00 +26°C° 0 mm 4 mps 724 mmHg 86%
    07:00 +27°C° 0 mm 4 mps 725 mmHg 83%
    08:00 +28°C° 0 mm 5 mps 726 mmHg 79%
    09:00 +29°C° 0 mm 5 mps 726 mmHg 74%
    10:00 +32°C° 0 mm 5 mps 726 mmHg 69%
    11:00 +33°C° 0 mm 5 mps 726 mmHg 63%
    12:00 +34°C° 0 mm 5 mps 725 mmHg 62%
    13:00 +34°C° 0 mm 5 mps 725 mmHg 61%
    14:00 +34°C° 0 mm 5 mps 724 mmHg 60%
    15:00 +34°C° 0 mm 4 mps 724 mmHg 63%
    16:00 +33°C° 0 mm 4 mps 724 mmHg 66%
    17:00 +33°C° 0 mm 3 mps 724 mmHg 69%
    18:00 +31°C° 0 mm 3 mps 724 mmHg 71%
    19:00 +30°C° 0 mm 3 mps 725 mmHg 73%
    20:00 +29°C° 0 mm 3 mps 725 mmHg 75%
    21:00 +29°C° 0 mm 4 mps 725 mmHg 76%
    22:00 +28°C° 0 mm 4 mps 725 mmHg 76%
    23:00 +28°C° 0 mm 5 mps 725 mmHg 77%

    24 September, Sunday

    Time Temperature Precipitation Wind Pressure Humidity
    00:00 +28°C° 0 mm 5 mps 725 mmHg 77%
    01:00 +27°C° 0 mm 5 mps 724 mmHg 77%
    02:00 +27°C° 0 mm 5 mps 724 mmHg 77%
    03:00 +27°C° 0 mm 4 mps 724 mmHg 78%
    04:00 +26°C° 0 mm 4 mps 724 mmHg 79%
    05:00 +26°C° 0 mm 4 mps 724 mmHg 81%
    06:00 +27°C° 0 mm 4 mps 725 mmHg 80%
    07:00 +28°C° 0 mm 4 mps 726 mmHg 79%
    08:00 +29°C° 0 mm 5 mps 726 mmHg 78%
    09:00 +30°C° 0.1 mm 5 mps 726 mmHg 73%
    10:00 +32°C° 0.1 mm 5 mps 726 mmHg 68%
    11:00 +34°C° 0.1 mm 5 mps 726 mmHg 63%
    12:00 +34°C° 0.2 mm 5 mps 725 mmHg 61%
    13:00 +34°C° 0.2 mm 5 mps 725 mmHg 59%
    14:00 +35°C° 0.2 mm 5 mps 724 mmHg 56%
    15:00 +34°C° 0.1 mm 4 mps 724 mmHg 59%
    16:00 +34°C° 0.1 mm 3 mps 724 mmHg 61%
    17:00 +32°C° 0.1 mm 2 mps 724 mmHg 64%
    18:00 +31°C° 0 mm 2 mps 724 mmHg 66%
    19:00 +30°C° 0 mm 1 mps 724 mmHg 68%
    20:00 +30°C° 0 mm 1 mps 725 mmHg 70%
    21:00 +29°C° 0 mm 1 mps 725 mmHg 71%
    22:00 +29°C° 0 mm 1 mps 725 mmHg 72%
    23:00 +28°C° 0 mm 2 mps 724 mmHg 72%

    25 September, Monday

    Time Temperature Precipitation Wind Pressure Humidity
    00:00 +28°C° 0 mm 2 mps 724 mmHg 73%
    01:00 +28°C° 0 mm 2 mps 724 mmHg 73%
    02:00 +27°C° 0 mm 3 mps 723 mmHg 74%
    03:00 +27°C° 0 mm 3 mps 723 mmHg 75%
    04:00 +27°C° 0 mm 3 mps 724 mmHg 76%
    05:00 +27°C° 0 mm 3 mps 724 mmHg 77%
    06:00 +28°C° 0 mm 4 mps 724 mmHg 75%
    07:00 +29°C° 0 mm 4 mps 725 mmHg 73%
    08:00 +30°C° 0 mm 4 mps 725 mmHg 71%
    09:00 +32°C° 0 mm 5 mps 725 mmHg 66%
    10:00 +33°C° 0 mm 5 mps 725 mmHg 62%
    11:00 +35°C° 0 mm 5 mps 725 mmHg 57%
    12:00 +35°C° 0.2 mm 5 mps 725 mmHg 55%
    13:00 +36°C° 0.2 mm 5 mps 724 mmHg 54%
    14:00 +36°C° 0.2 mm 6 mps 723 mmHg 52%
    15:00 +35°C° 0.1 mm 5 mps 723 mmHg 56%
    16:00 +34°C° 0.1 mm 4 mps 723 mmHg 61%
    17:00 +34°C° 0.1 mm 3 mps 723 mmHg 65%
    18:00 +32°C° 0 mm 2 mps 724 mmHg 68%
    19:00 +31°C° 0 mm 2 mps 724 mmHg 72%
    20:00 +30°C° 0 mm 1 mps 724 mmHg 75%
    21:00 +29°C° 0 mm 1 mps 724 mmHg 76%
    22:00 +27°C° 0 mm 0 mps 724 mmHg 78%
    23:00 +27°C° 0 mm 0 mps 724 mmHg 79%
    Show more